TimeAKST,TemperatureF,Dew PointF,Humidity,Sea Level PressureIn,VisibilityMPH,Wind Direction,Wind SpeedMPH,Gust SpeedMPH,PrecipitationIn,Events,Conditions,WindDirDegrees,DateUTC
12:53 AM,34.0,32.0,92,29.45,10.0,Calm,Calm,-,0.00,,Overcast,0,2012-12-05 09:53:00
1:24 AM,33.8,32.0,93,29.45,10.0,NNE,4.6,-,0.00,,Overcast,30,2012-12-05 10:24:00
1:53 AM,33.1,32.0,96,29.47,10.0,Calm,Calm,-,0.02,,Overcast,0,2012-12-05 10:53:00
3:10 AM,33.8,32.0,93,29.49,10.0,Calm,Calm,-,0.00,,Overcast,0,2012-12-05 12:10:00
3:53 AM,34.0,33.1,96,29.51,10.0,Calm,Calm,-,0.00,,Overcast,0,2012-12-05 12:53:00
5:53 AM,34.0,33.1,96,29.55,10.0,Calm,Calm,-,0.02,,Mostly Cloudy,0,2012-12-05 14:53:00
6:05 AM,33.8,32.0,93,29.55,7.0,NNE,4.6,-,0.00,Snow,Light Snow,20,2012-12-05 15:05:00
6:19 AM,33.8,32.0,93,29.55,10.0,Calm,Calm,-,0.00,,Overcast,0,2012-12-05 15:19:00
6:53 AM,34.0,32.0,92,29.57,10.0,Calm,Calm,-,0.00,,Overcast,0,2012-12-05 15:53:00
7:08 AM,33.8,32.0,93,29.56,5.0,Variable,3.5,-,0.00,Snow,Light Snow,0,2012-12-05 16:08:00
7:32 AM,35.6,32.0,87,29.56,10.0,Calm,Calm,-,0.00,,Mostly Cloudy,0,2012-12-05 16:32:00
7:53 AM,34.0,32.0,92,29.57,10.0,North,3.5,-,0.00,,Mostly Cloudy,350,2012-12-05 16:53:00
8:31 AM,35.6,32.0,87,29.59,10.0,Calm,Calm,-,0.00,Rain,Light Rain,0,2012-12-05 17:31:00
8:53 AM,34.0,32.0,92,29.59,10.0,ENE,4.6,-,0.00,Rain,Light Rain,70,2012-12-05 17:53:00
9:05 AM,33.8,33.8,100,29.60,10.0,Calm,Calm,-,0.00,Rain,Light Rain,0,2012-12-05 18:05:00
9:16 AM,33.8,33.8,100,29.60,10.0,Calm,Calm,-,0.00,,Overcast,0,2012-12-05 18:16:00
9:29 AM,33.8,32.0,93,29.60,10.0,NNE,3.5,-,0.00,,Overcast,30,2012-12-05 18:29:00
9:42 AM,33.8,32.0,93,29.60,10.0,Variable,3.5,-,0.02,,Overcast,0,2012-12-05 18:42:00
9:53 AM,34.0,32.0,92,29.61,10.0,Calm,Calm,-,0.02,,Overcast,0,2012-12-05 18:53:00
10:05 AM,33.8,33.8,100,29.61,10.0,Calm,Calm,-,0.00,Rain,Light Rain,0,2012-12-05 19:05:00
10:14 AM,35.6,33.8,93,29.61,9.0,Calm,Calm,-,0.01,Rain,Light Rain,0,2012-12-05 19:14:00
10:38 AM,33.8,32.0,93,29.62,1.8,Variable,4.6,-,0.03,Snow,Light Snow,0,2012-12-05 19:38:00
10:42 AM,33.8,32.0,93,29.62,0.8,Variable,4.6,-,0.03,Snow,Light Snow,0,2012-12-05 19:42:00
10:53 AM,33.1,32.0,96,29.62,2.5,Variable,3.5,-,0.04,Snow,Light Snow,0,2012-12-05 19:53:00
11:00 AM,33.8,32.0,93,29.62,9.0,SE,3.5,-,0.01,,Overcast,140,2012-12-05 20:00:00
11:27 AM,33.8,32.0,93,29.62,2.0,Variable,4.6,-,0.04,Snow,Light Snow,0,2012-12-05 20:27:00
11:36 AM,33.8,32.0,93,29.62,1.8,South,3.5,-,0.05,Snow,Light Snow,170,2012-12-05 20:36:00
11:53 AM,34.0,33.1,96,29.63,9.0,Variable,4.6,-,0.07,Rain,Light Rain,0,2012-12-05 20:53:00
12:00 PM,35.6,33.8,93,29.62,10.0,Variable,4.6,-,0.00,,Mostly Cloudy,0,2012-12-05 21:00:00
12:44 PM,35.6,33.8,93,29.63,6.0,South,5.8,-,0.01,Rain,Rain,170,2012-12-05 21:44:00
12:53 PM,35.1,32.0,89,29.64,2.5,SSW,5.8,-,0.03,Snow,Light Snow,200,2012-12-05 21:53:00
1:02 PM,33.8,33.8,100,29.64,1.2,Calm,Calm,-,0.02,Snow,Light Snow,0,2012-12-05 22:02:00
1:07 PM,33.8,33.8,100,29.63,2.0,Variable,3.5,-,0.03,Snow,Light Snow,0,2012-12-05 22:07:00
1:16 PM,35.6,33.8,93,29.63,9.0,SSE,8.1,-,0.03,,Mostly Cloudy,150,2012-12-05 22:16:00
1:53 PM,35.1,32.0,89,29.65,10.0,Variable,5.8,-,0.04,,Partly Cloudy,0,2012-12-05 22:53:00
2:20 PM,35.6,32.0,87,29.65,2.5,Variable,4.6,-,0.00,Snow,Light Snow,0,2012-12-05 23:20:00
2:33 PM,33.8,32.0,93,29.65,7.0,Calm,Calm,-,0.01,,Overcast,0,2012-12-05 23:33:00
2:53 PM,33.1,30.9,92,29.65,10.0,Calm,Calm,-,0.01,,Mostly Cloudy,0,2012-12-05 23:53:00
3:48 PM,33.8,32.0,93,29.67,2.5,South,4.6,-,0.01,Snow,Light Snow,190,2012-12-06 00:48:00
3:53 PM,34.0,32.0,92,29.68,4.0,Variable,3.5,-,0.01,Snow,Light Snow,0,2012-12-06 00:53:00
4:44 PM,33.8,32.0,93,29.69,4.0,SSW,10.4,-,0.03,Snow,Light Snow,200,2012-12-06 01:44:00
5:06 PM,33.8,32.0,93,29.70,4.0,SSE,5.8,-,0.01,Snow,Light Snow,160,2012-12-06 02:06:00
5:29 PM,33.8,32.0,93,29.70,10.0,SSE,6.9,-,0.02,,Overcast,160,2012-12-06 02:29:00
5:53 PM,34.0,33.1,96,29.72,7.0,Variable,3.5,-,0.03,Snow,Light Snow,0,2012-12-06 02:53:00
6:53 PM,33.1,30.9,92,29.73,10.0,NNW,3.5,-,0.00,,Mostly Cloudy,340,2012-12-06 03:53:00
7:53 PM,34.0,32.0,92,29.76,9.0,SSW,9.2,-,0.00,Snow,Light Snow,200,2012-12-06 04:53:00
8:02 PM,33.8,30.2,87,29.76,1.8,Variable,5.8,-,0.01,Snow,Light Snow,0,2012-12-06 05:02:00
8:10 PM,33.8,32.0,93,29.76,1.2,Variable,3.5,-,0.01,Snow,Light Snow,0,2012-12-06 05:10:00
8:13 PM,33.8,32.0,93,29.76,2.0,Variable,3.5,-,0.01,Snow,Light Snow,0,2012-12-06 05:13:00
8:25 PM,33.8,32.0,93,29.76,5.0,Calm,Calm,-,0.01,Snow,Light Snow,0,2012-12-06 05:25:00
8:53 PM,33.1,32.0,96,29.77,5.0,South,3.5,-,0.01,Snow,Light Snow,170,2012-12-06 05:53:00
8:58 PM,33.8,32.0,93,29.76,2.5,Calm,Calm,-,0.00,Snow,Light Snow,0,2012-12-06 05:58:00
9:22 PM,33.8,32.0,93,29.76,4.0,NNE,8.1,-,0.00,Snow,Light Snow,20,2012-12-06 06:22:00
9:29 PM,33.8,32.0,93,29.77,2.5,NNE,4.6,-,0.00,Snow,Light Snow,20,2012-12-06 06:29:00
9:42 PM,33.8,32.0,93,29.77,4.0,Calm,Calm,-,0.00,Snow,Light Snow,0,2012-12-06 06:42:00
9:46 PM,33.8,32.0,93,29.77,1.8,Calm,Calm,-,0.00,Snow,Light Snow,0,2012-12-06 06:46:00
9:51 PM,33.8,32.0,93,29.77,0.8,Calm,Calm,-,0.00,Snow,Light Snow,0,2012-12-06 06:51:00
9:53 PM,33.1,32.0,96,29.77,0.8,Calm,Calm,-,0.00,Snow,Light Snow,0,2012-12-06 06:53:00
10:16 PM,33.8,32.0,93,29.77,1.0,Calm,Calm,-,0.00,Snow,Light Snow,0,2012-12-06 07:16:00
10:36 PM,33.8,32.0,93,29.77,2.0,Calm,Calm,-,0.00,Snow,Light Snow,0,2012-12-06 07:36:00
10:53 PM,33.1,32.0,96,29.78,2.0,Calm,Calm,-,0.00,Snow,Light Snow,0,2012-12-06 07:53:00
10:57 PM,33.8,32.0,93,29.77,1.5,Calm,Calm,-,0.00,Snow,Light Snow,0,2012-12-06 07:57:00
11:00 PM,33.8,32.0,93,29.77,1.0,Calm,Calm,-,0.00,Snow,Light Snow,0,2012-12-06 08:00:00
11:11 PM,33.8,32.0,93,29.78,1.0,Calm,Calm,-,0.00,Snow,Light Snow,0,2012-12-06 08:11:00
11:21 PM,33.8,32.0,93,29.78,1.5,Calm,Calm,-,0.00,Snow,Light Snow,0,2012-12-06 08:21:00
11:28 PM,33.8,32.0,93,29.78,2.0,NNE,3.5,-,0.00,Snow,Light Snow,30,2012-12-06 08:28:00
11:38 PM,33.8,32.0,93,29.78,1.5,Calm,Calm,-,0.00,Snow,Light Snow,0,2012-12-06 08:38:00
11:49 PM,33.8,32.0,93,29.78,2.0,Calm,Calm,-,0.00,Snow,Light Snow,0,2012-12-06 08:49:00
11:53 PM,33.1,32.0,96,29.78,2.5,Calm,Calm,-,0.00,Snow,Light Snow,0,2012-12-06 08:53:00